Location: Blue Mountain Vista Observatory
(40.6992°N, 75.9422°W)
Time: 23:04:45
(UTC-04:00)

Amateur Radio Satellites - All Passes

Search period start: 27 August 2014 22:34
Search period end: 28 August 2014 22:34
Location: Blue Mountain Vista Observatory, 40.6992°N, 75.9422°W

Satellite Date Start Highest point End Downlink Frequencies (MHz)
Time Altitude Azimuth
MaSat-1 27 Aug 23:03:36 23:07:38 27° 53° (NE) 23:11:14 437.345 MHz
Saudisat 1A 27 Aug 23:22:23 23:26:29 40° 116° (ESE) 23:30:37 436.775 MHz
KITSAT 1 28 Aug 00:01:41 00:09:25 52° 112° (ESE) 00:17:10 435.175 FM
MaSat-1 28 Aug 00:40:40 00:44:41 30° 255° (WSW) 00:48:13 437.345 MHz
Saudisat 1A 28 Aug 01:02:35 01:06:12 24° 314° (NW) 01:09:49 436.775 MHz
Sapphire 28 Aug 01:15:38 01:17:14 11° 37° (NE) 01:18:50 437.095 MHz 1200 baud AX-25 AFSK
PCSat 28 Aug 01:43:59 01:47:44 19° 44° (NE) 01:51:28 145.825 MHz
KITSAT 1 28 Aug 01:57:32 02:05:00 40° 312° (NW) 02:12:32 435.175 FM
Oscar 19 28 Aug 01:58:23 02:02:56 30° 96° (E) 02:07:27 437.125 CW, 437.150 USB
JAS-1B 28 Aug 01:59:09 02:02:06 13° 84° (E) 02:04:54 435.800 - 435.900 CW/SSB
ITAMSAT 1 28 Aug 02:23:53 02:27:54 22° 94° (E) 02:31:55 435.822 SSB
Oscar 16 28 Aug 02:32:16 02:37:28 66° 102° (ESE) 02:42:37 437.025 USB, Beacon 2401.1428
Uribyol 2 28 Aug 02:34:18 02:38:50 30° 96° (E) 02:43:22 436.500 FM
AO-Echo 28 Aug 02:50:42 02:55:12 43° 99° (E) 02:59:40 ?
AO-27 28 Aug 02:51:25 02:56:20 42° 99° (E) 03:01:13 436.795 MHz FM
Sapphire 28 Aug 02:56:31 03:01:53 57° 57° (ENE) 03:07:12 437.095 MHz 1200 baud AX-25 AFSK
Gurwin Techsat 1B 28 Aug 03:02:08 03:06:22 24° 94° (E) 03:10:35 435.225 FM
PCSat 28 Aug 03:26:20 03:31:46 77° 243° (WSW) 03:37:10 145.825 MHz
Oscar 19 28 Aug 03:37:38 03:42:15 33° 292° (WNW) 03:46:50 437.125 CW, 437.150 USB
JAS-1B 28 Aug 03:46:57 03:54:00 83° 286° (WNW) 04:00:00 435.800 - 435.900 CW/SSB
OPAL 28 Aug 03:54:28 03:59:04 37° 66° (ENE) 04:03:45 ?
TMSAT-1 28 Aug 03:55:03 04:00:16 54° 100° (E) 04:05:26 436.925 FM
KITSAT 1 28 Aug 03:59:24 04:03:06 13° 339° (NNW) 04:06:48 435.175 FM
ITAMSAT 1 28 Aug 04:02:41 04:07:34 43° 290° (WNW) 04:12:26 435.822 SSB
Oscar 16 28 Aug 04:13:06 04:16:15 16° 299° (WNW) 04:19:24 437.025 USB, Beacon 2401.1428
Uribyol 2 28 Aug 04:13:41 04:18:16 33° 292° (WNW) 04:22:52 436.500 FM
AO-Echo 28 Aug 04:30:20 04:33:40 19° 295° (WNW) 04:36:58 ?
SO-50 28 Aug 04:30:31 04:34:47 47° 117° (ESE) 04:39:10 436.795 FM
AO-27 28 Aug 04:31:29 04:35:35 24° 295° (WNW) 04:39:41 436.795 MHz FM
Sapphire 28 Aug 04:41:01 04:44:49 20° 254° (WSW) 04:48:37 437.095 MHz 1200 baud AX-25 AFSK
Gurwin Techsat 1B 28 Aug 04:41:30 04:46:29 42° 290° (WNW) 04:51:26 435.225 FM
AO-7 28 Aug 04:53:44 05:01:32 43° 100° (E) 05:09:16 29.400 - 29.500 MHz
Uosat F 28 Aug 05:16:44 05:21:42 62° 102° (ESE) 05:26:38 435.120 FM
OPAL 28 Aug 05:33:50 05:38:00 26° 263° (W) 05:42:16 ?
STRAND 1 28 Aug 05:35:40 05:38:14 14° 60° (ENE) 05:40:49 ?
TMSAT-1 28 Aug 05:36:01 05:39:45 20° 297° (WNW) 05:43:28 436.925 FM
JAS-1B 28 Aug 05:39:48 05:43:14 14° 309° (NW) 05:46:26 435.800 - 435.900 CW/SSB
JAS-2 28 Aug 05:50:15 05:52:46 13° 91° (E) 05:55:21 435.800 - 435.900 CW/SSB, 435.910 FM
KITSAT 1 28 Aug 06:01:11 06:03:02 11° 11° (N) 06:04:53 435.175 FM
SO-50 28 Aug 06:12:05 06:15:36 22° 316° (NW) 06:19:11 436.795 FM
Hamsat 28 Aug 06:45:43 06:49:59 52° 99° (E) 06:54:12 145.90 MHz
UOSAT-12 28 Aug 06:46:29 06:51:05 87° 121° (ESE) 06:55:49 437.025 FM, 437.400 FM
AO-7 28 Aug 06:46:36 06:54:16 44° 298° (WNW) 07:01:54 29.400 - 29.500 MHz
Uosat F 28 Aug 06:56:56 06:59:58 16° 298° (WNW) 07:03:01 435.120 FM
STRAND 1 28 Aug 07:11:42 07:16:47 75° 257° (WSW) 07:21:54 ?
JAS-2 28 Aug 07:33:10 07:38:21 68° 286° (WNW) 07:43:49 435.800 - 435.900 CW/SSB, 435.910 FM
Saudisat 1A 28 Aug 07:49:20 07:53:17 31° 49° (NE) 07:57:13 436.775 MHz
KITSAT 1 28 Aug 07:55:15 08:01:55 27° 40° (NE) 08:08:31 435.175 FM
SO-67 28 Aug 08:05:04 08:08:31 61° 100° (E) 08:11:56 435.3500 MHz FM
RS-15 28 Aug 08:12:11 08:22:55 58° 113° (ESE) 08:33:28 29.354 - 29.394 USB, Beacon 29.352 USB
Hamsat 28 Aug 08:23:04 08:25:29 15° 296° (WNW) 08:27:54 145.90 MHz
UOSAT-12 28 Aug 08:29:11 08:31:54 15° 321° (NW) 08:34:40 437.025 FM, 437.400 FM
Saudisat 1A 28 Aug 09:29:00 09:32:48 28° 246° (WSW) 09:36:34 436.775 MHz
HO-68 28 Aug 09:39:27 09:46:14 44° 99° (E) 09:52:58 435.675 MHz FM
KITSAT 1 28 Aug 09:50:08 09:58:14 82° 242° (WSW) 10:06:17 435.175 FM
UKube-1 28 Aug 09:55:29 09:59:15 28° 97° (E) 10:03:00 145.840 MHz, 145.915 MHz
Oscar 11 28 Aug 10:04:44 10:08:16 24° 95° (E) 10:11:46 145.825 FM, Beacon 2401.500 USB
FUNcube-1 28 Aug 10:23:19 10:26:01 16° 92° (E) 10:28:44 145.950 - 145.970 MHz USB
RS-15 28 Aug 10:25:13 10:35:36 45° 316° (NW) 10:45:57 29.354 - 29.394 USB, Beacon 29.352 USB
ISS 28 Aug 10:39:09 10:40:30 12° 129° (SE) 10:41:50 145.800 FM
HO-68 28 Aug 11:27:23 11:33:47 37° 297° (WNW) 11:40:10 435.675 MHz FM
UKube-1 28 Aug 11:31:47 11:35:21 25° 293° (WNW) 11:38:54 145.840 MHz, 145.915 MHz
Oscar 11 28 Aug 11:40:37 11:44:27 30° 290° (WNW) 11:48:15 145.825 FM, Beacon 2401.500 USB
KITSAT 1 28 Aug 11:48:06 11:52:22 16° 260° (W) 11:56:39 435.175 FM
FUNcube-1 28 Aug 11:58:17 12:02:39 50° 287° (WNW) 12:07:04 145.950 - 145.970 MHz USB
ISS 28 Aug 12:13:29 12:16:48 75° 325° (NW) 12:20:08 145.800 FM
Oscar 16 28 Aug 12:13:38 12:15:31 12° 59° (ENE) 12:17:24 437.025 USB, Beacon 2401.1428
AO-40 28 Aug 12:16:53 12:17:37 10° 216° (SW) 12:18:18 Beacon 2401.320
JAS-1B 28 Aug 12:40:59 12:47:35 22° 56° (NE) 12:53:44 435.800 - 435.900 CW/SSB
RS-15 28 Aug 12:44:17 12:51:52 20° 349° (N) 12:59:30 29.354 - 29.394 USB, Beacon 29.352 USB
MaSat-1 28 Aug 12:53:25 12:55:39 13° 99° (E) 12:57:57 437.345 MHz
SO-50 28 Aug 13:02:11 13:06:45 42° 52° (NE) 13:11:21 436.795 FM
Oscar 19 28 Aug 13:14:54 13:19:44 42° 70° (ENE) 13:24:35 437.125 CW, 437.150 USB
UOSAT-12 28 Aug 13:38:13 13:40:09 12° 36° (NE) 13:42:04 437.025 FM, 437.400 FM
PANSAT 28 Aug 13:38:54 13:39:23 10° 168° (SSE) 13:39:53 not established
TMSAT-1 28 Aug 13:40:23 13:41:45 11° 58° (ENE) 13:43:07 436.925 FM
ITAMSAT 1 28 Aug 13:41:32 13:46:08 34° 68° (ENE) 13:50:44 435.822 SSB
Oscar 16 28 Aug 13:48:55 13:54:05 89° 256° (WSW) 13:59:17 437.025 USB, Beacon 2401.1428
ISS 28 Aug 13:51:38 13:54:00 18° 343° (NNW) 13:56:22 145.800 FM
Uribyol 2 28 Aug 13:51:52 13:56:44 44° 70° (ENE) 14:01:37 436.500 FM
AO-Echo 28 Aug 14:03:04 14:08:02 58° 73° (ENE) 14:12:53 ?
AO-7 28 Aug 14:05:51 14:09:11 13° 45° (NE) 14:12:31 29.400 - 29.500 MHz
AO-27 28 Aug 14:09:15 14:14:21 62° 73° (ENE) 14:19:28 436.795 MHz FM
Gurwin Techsat 1B 28 Aug 14:22:49 14:27:38 37° 69° (ENE) 14:32:28 435.225 FM
JAS-1B 28 Aug 14:27:04 14:36:58 82° 73° (ENE) 14:45:59 435.800 - 435.900 CW/SSB
MaSat-1 28 Aug 14:27:06 14:31:57 75° 297° (WNW) 14:37:09 437.345 MHz
SO-50 28 Aug 14:43:15 14:47:05 24° 248° (WSW) 14:50:57 436.795 FM
Oscar 19 28 Aug 14:55:11 14:59:13 23° 266° (W) 15:03:17 437.125 CW, 437.150 USB
Uosat F 28 Aug 14:55:57 14:56:43 10° 58° (ENE) 14:57:28 435.120 FM
RS-15 28 Aug 15:00:53 15:09:38 26° 25° (NNE) 15:18:31 29.354 - 29.394 USB, Beacon 29.352 USB
TMSAT-1 28 Aug 15:15:31 15:20:48 82° 75° (ENE) 15:26:07 436.925 FM
UOSAT-12 28 Aug 15:16:28 15:21:12 69° 56° (NE) 15:25:50 437.025 FM, 437.400 FM
PANSAT 28 Aug 15:16:54 15:18:48 13° 181° (S) 15:20:42 not established
ITAMSAT 1 28 Aug 15:21:10 15:25:37 29° 264° (W) 15:30:05 435.822 SSB
ISS 28 Aug 15:30:09 15:31:46 13° 4° (N) 15:33:22 145.800 FM
Uribyol 2 28 Aug 15:32:28 15:36:23 22° 266° (W) 15:40:19 436.500 FM
AO-Echo 28 Aug 15:44:04 15:47:07 16° 268° (W) 15:50:08 ?
AO-27 28 Aug 15:51:16 15:54:16 15° 269° (W) 15:57:18 436.795 MHz FM
AO-7 28 Aug 15:52:07 16:00:12 57° 65° (ENE) 16:08:16 29.400 - 29.500 MHz
Gurwin Techsat 1B 28 Aug 16:03:10 16:07:38 28° 265° (W) 16:12:09 435.225 FM
MaSat-1 28 Aug 16:07:44 16:09:57 13° 316° (NW) 16:12:13 437.345 MHz
JAS-1B 28 Aug 16:20:29 16:28:01 25° 269° (W) 16:35:11 435.800 - 435.900 CW/SSB
PCSat 28 Aug 16:27:34 16:30:12 14° 103° (ESE) 16:32:51 145.825 MHz
Uosat F 28 Aug 16:29:39 16:34:40 83° 75° (ENE) 16:39:42 435.120 FM
UOSAT-12 28 Aug 16:58:27 17:00:45 14° 252° (WSW) 17:03:01 437.025 FM, 437.400 FM
TMSAT-1 28 Aug 16:59:31 17:01:20 12° 271° (W) 17:03:09 436.925 FM
ISS 28 Aug 17:06:33 17:09:23 25° 24° (NNE) 17:12:14 145.800 FM
RS-15 28 Aug 17:13:24 17:24:28 69° 54° (NE) 17:35:57 29.354 - 29.394 USB, Beacon 29.352 USB
Oscar 10/S400 28 Aug 17:37:21 17:54:01 34° 147° (SSE) 18:19:02 145.825 - 145.975 CW/USB, Beacon 145.810 USB
Sapphire 28 Aug 17:37:55 17:43:10 56° 114° (ESE) 17:48:28 437.095 MHz 1200 baud AX-25 AFSK
Hamsat 28 Aug 17:38:46 17:42:42 36° 71° (ENE) 17:46:40 145.90 MHz
OPAL 28 Aug 17:42:46 17:48:01 82° 106° (ESE) 17:53:14 ?
JAS-2 28 Aug 17:44:42 17:50:43 48° 71° (ENE) 17:56:06 435.800 - 435.900 CW/SSB, 435.910 FM
AO-7 28 Aug 17:46:04 17:53:17 32° 263° (W) 18:00:32 29.400 - 29.500 MHz
PCSat 28 Aug 18:07:30 18:12:54 77° 300° (WNW) 18:18:21 145.825 MHz
Uosat F 28 Aug 18:13:03 18:14:03 11° 271° (W) 18:15:03 435.120 FM
SO-67 28 Aug 18:38:33 18:41:06 19° 69° (ENE) 18:43:39 435.3500 MHz FM
ISS 28 Aug 18:43:02 18:46:17 50° 221° (SW) 18:49:31 145.800 FM
Hamsat 28 Aug 19:15:38 19:18:45 19° 267° (W) 19:21:55 145.90 MHz
Sapphire 28 Aug 19:22:39 19:26:57 24° 313° (NW) 19:31:16 437.095 MHz 1200 baud AX-25 AFSK
STRAND 1 28 Aug 19:22:49 19:27:33 37° 98° (E) 19:32:15 ?
OPAL 28 Aug 19:23:36 19:26:11 14° 303° (WNW) 19:28:47 ?
RS-15 28 Aug 19:26:36 19:36:02 34° 254° (WSW) 19:45:50 29.354 - 29.394 USB, Beacon 29.352 USB
JAS-2 28 Aug 19:30:57 19:35:57 24° 265° (W) 19:40:33 435.800 - 435.900 CW/SSB, 435.910 FM
PCSat 28 Aug 19:54:23 19:57:15 14° 320° (NW) 20:00:07 145.825 MHz
HO-68 28 Aug 20:08:08 20:14:18 33° 62° (ENE) 20:20:28 435.675 MHz FM
SO-67 28 Aug 20:11:15 20:14:01 22° 265° (W) 20:16:49 435.3500 MHz FM
UKube-1 28 Aug 20:51:02 20:54:34 25° 67° (ENE) 20:58:07 145.840 MHz, 145.915 MHz
Oscar 11 28 Aug 21:00:07 21:03:10 19° 66° (ENE) 21:06:13 145.825 FM, Beacon 2401.500 USB
STRAND 1 28 Aug 21:02:22 21:06:33 26° 294° (WNW) 21:10:43 ?
FUNcube-1 28 Aug 21:21:15 21:22:43 12° 62° (ENE) 21:24:11 145.950 - 145.970 MHz USB
HO-68 28 Aug 21:54:52 22:01:43 49° 260° (W) 22:08:38 435.675 MHz FM
UKube-1 28 Aug 22:26:53 22:30:39 29° 263° (W) 22:34:27 145.840 MHz, 145.915 MHz
